ソニア彗星

C/2014 A4 ( SONEAR )

English version
Home page
Updated on April 13, 2018

---------------------------------------------------------------------

・ プロフィール

発見日 2014年1月12日
発見光度 18.1等
発見者 Southern Observatory for Near Earth Research (Oliveira, Brazil)

・ 写真集

・ 軌道要素

Epoch 2015 Sept. 15.0 TT = JDT 2457280.5
T 2015 Sept. 5.86438 TT                                 MPCW
q   4.1801817            (2000.0)            P               Q
z  -0.0001952      Peri.  356.78843     +0.85257580     +0.30629465
 +/-0.0000003      Node    29.72718     +0.49649568     -0.72761937
e   1.0008161      Incl.  121.35890     +0.16311510     +0.61380260
From 2594 observations 2014 Jan. 12-2017 Sept. 17, mean residual 0".5.

・ 星図

・ 光度変化

        m1 = 6.0 + 5 logΔ + 10.0 log r(t + 50)

---------------------------------------------------------------------

軌道要素はM.P.E.C. 2018-B155に掲載されたものです。
光度グラフはComet for Windowsで作成したものです。

---------------------------------------------------------------------

Copyright(C) Seiichi Yoshida (comet@aerith.net). All rights reserved.